FW0523 Weather Reports


Display with metric or nautical units.
time (UTC)temp
F
wind
direction
speed
MPH
gust
MPH
rain 1hr
in
rain 24hr
in
rain mn
in
humidity
%
barometer
mb
20260903011104 62 171 0.0 7.0 0.00 0.00 0.00 62 1027.2
20260903005103 63 360 2.0 8.0 0.00 0.00 0.00 57 1028.1
20260903004104 65 360 5.0 9.0 0.00 0.00 0.00 54 1028.7
20260903003104 66 360 2.0 7.0 0.00 0.00 0.00 49 1028.3
20260903002103 67 195 0.0 8.0 0.00 0.00 0.00 48 1027.6
20260903001104 68 360 1.0 10.0 0.00 0.00 0.00 44 1027.1
20260902234002 68 133 6.0 12.0 0.00 0.00 0.00 42 1026.8
20260902233003 68 137 2.0 9.0 0.00 0.00 0.00 42 1026.4
20260902232004 69 319 1.0 10.0 0.00 0.00 0.00 41 1026.5
20260902231002 68 360 1.0 16.0 0.00 0.00 0.00 43 1026.8
20260902230003 68 203 4.0 19.0 0.00 0.00 0.00 43 1027.5
20260902225004 70 360 4.0 20.0 0.00 0.00 0.00 41 1027.6
20260902224004 74 360 8.0 23.0 0.00 0.00 0.00 33 1027.3
20260902223002 76 360 5.0 21.0 0.00 0.00 0.00 26 1025.9
20260902222004 78 335 2.0 5.0 0.00 0.00 0.00 21 1025.5
20260902221003 80 322 0.0 6.0 0.00 0.00 0.00 19 1025.1
20260902220003 78 360 1.0 6.0 0.00 0.00 0.00 21 1025.1
20260902215003 77 360 2.0 5.0 0.00 0.00 0.00 23 1025.1
20260902214004 77 16 9.0 6.0 0.00 0.00 0.00 21 1025.2
20260902213004 77 342 2.0 7.0 0.00 0.00 0.00 21 1025.1
20260902212002 77 340 2.0 6.0 0.00 0.00 0.00 22 1025.1
20260902211003 77 330 2.0 12.0 0.00 0.00 0.00 22 1025.1
20260902204903 76 354 4.0 8.0 0.00 0.00 0.00 23 1025.2
20260902202802 74 329 2.0 5.0 0.00 0.00 0.00 25 1025.6
20260902201802 73 340 2.0 4.0 0.00 0.00 0.00 25 1025.9
20260902200803 73 23 3.0 9.0 0.00 0.00 0.00 26 1026.0
20260902195803 73 301 5.0 9.0 0.00 0.00 0.00 27 1026.3
20260902194804 73 347 5.0 12.0 0.00 0.00 0.00 27 1026.3
20260902193804 74 18 3.0 9.0 0.00 0.00 0.00 27 1026.3
20260902192802 74 28 3.0 8.0 0.00 0.00 0.00 26 1026.5
20260902191802 74 302 0.0 9.0 0.00 0.00 0.00 28 1026.8
20260902190803 73 47 2.0 8.0 0.00 0.00 0.00 28 1027.1
20260902184702 73 134 5.0 11.0 0.00 0.00 0.00 27 1027.1
20260902183702 72 110 3.0 8.0 0.00 0.00 0.00 28 1027.2
20260902182703 72 150 0.0 8.0 0.00 0.00 0.00 28 1027.5
20260902181703 72 210 0.0 5.0 0.00 0.00 0.00 26 1027.5
20260902180703 72 360 1.0 6.0 0.00 0.00 0.00 25 1027.6
20260902175704 72 104 1.0 6.0 0.00 0.00 0.00 25 1027.7
20260902174702 72 54 0.0 1.0 0.00 0.00 0.00 25 1027.7
20260902172604 72 203 3.0 5.0 0.00 0.00 0.00 25 1027.9
20260902171602 73 357 0.0 0.0 0.00 0.00 0.00 25 1027.7
20260902170603 73 329 1.0 6.0 0.00 0.00 0.00 25 1027.7
20260902165603 73 360 1.0 6.0 0.00 0.00 0.00 25 1027.9
20260902164603 72 360 0.0 9.0 0.00 0.00 0.00 27 1027.9
20260902163604 72 360 0.0 6.0 0.00 0.00 0.00 26 1028.0
20260902162604 72 14 1.0 6.0 0.00 0.00 0.00 27 1027.9
20260902161602 72 147 5.0 10.0 0.00 0.00 0.00 26 1027.9
20260902155504 71 232 3.0 9.0 0.00 0.00 0.00 31 1028.0
20260902154502 70 92 5.0 9.0 0.00 0.00 0.00 34 1028.0
20260902153503 69 172 4.0 10.0 0.00 0.00 0.00 35 1028.0
20260902152504 68 360 3.0 10.0 0.00 0.00 0.00 37 1028.1
20260902151502 67 117 3.0 9.0 0.00 0.00 0.00 39 1028.3
20260902150503 66 360 3.0 10.0 0.00 0.00 0.00 42 1028.4
20260902145504 64 360 3.0 9.0 0.00 0.00 0.00 44 1028.4
20260902143404 61 360 4.0 8.0 0.00 0.00 0.00 51 1028.3
20260902142402 60 150 3.0 9.0 0.00 0.00 0.00 51 1028.4
20260902141403 60 360 0.0 10.0 0.00 0.00 0.00 52 1028.4
20260902140404 60 148 1.0 9.0 0.00 0.00 0.00 52 1028.5
20260902135402 60 360 0.0 9.0 0.00 0.00 0.00 52 1028.4
20260902134402 60 360 2.0 4.0 0.00 0.00 0.00 52 1028.5
20260902133403 60 25 2.0 9.0 0.00 0.00 0.00 52 1028.4
20260902131303 60 360 0.0 9.0 0.00 0.00 0.00 53 1028.1
20260902130302 59 360 0.0 6.0 0.00 0.00 0.00 54 1028.3
20260902125305 60 332 1.0 1.0 0.00 0.00 0.00 54 1028.3
20260902124303 60 360 1.0 6.0 0.00 0.00 0.00 53 1028.1
20260902123304 60 360 0.0 9.0 0.00 0.00 0.00 53 1028.0
20260902122305 60 312 1.0 8.0 0.00 0.00 0.00 53 1028.0
20260902121303 60 313 0.0 9.0 0.00 0.00 0.00 53 1028.0
20260902120304 60 360 1.0 6.0 0.00 0.00 0.00 53 1028.0
20260902115306 59 360 1.0 10.0 0.00 0.00 0.00 54 1027.9
20260902114303 59 332 0.0 9.0 0.00 0.00 0.00 55 1028.0
20260902113303 58 360 2.0 9.0 0.00 0.00 0.00 55 1027.9
20260902112305 58 85 0.0 4.0 0.00 0.00 0.00 54 1028.0
20260902111303 58 175 1.0 7.0 0.00 0.00 0.00 53 1028.0
20260902110305 59 164 0.0 2.0 0.00 0.00 0.00 51 1028.1
20260902105306 59 41 0.0 3.0 0.00 0.00 0.00 50 1028.3
20260902104302 59 89 3.0 8.0 0.00 0.00 0.00 49 1028.5
20260902103303 59 319 5.0 14.0 0.00 0.00 0.00 49 1028.5
20260902102307 61 326 0.0 4.0 0.00 0.00 0.00 46 1028.4
20260902101303 61 360 1.0 8.0 0.00 0.00 0.00 45 1027.9
20260902100305 61 360 0.0 4.0 0.00 0.00 0.00 45 1027.6
20260902095306 61 360 0.0 4.0 0.00 0.00 0.00 45 1027.7
20260902094302 61 360 0.0 1.0 0.00 0.00 0.00 45 1027.5
20260902093303 61 360 0.0 9.0 0.00 0.00 0.00 45 1027.7
20260902092305 60 103 1.0 9.0 0.00 0.00 0.00 46 1027.7
20260902090204 59 360 2.0 8.0 0.00 0.00 0.00 48 1027.9
20260902085202 59 360 0.0 7.0 0.00 0.00 0.00 49 1027.9
20260902084203 59 360 1.0 3.0 0.00 0.00 0.00 50 1028.0
20260902083204 59 140 0.0 8.0 0.00 0.00 0.00 50 1028.1
20260902082202 59 158 0.0 10.0 0.00 0.00 0.00 50 1028.3
20260902081203 59 227 0.0 9.0 0.00 0.00 0.00 49 1028.4
20260902075103 58 360 1.0 6.0 0.00 0.00 0.00 49 1028.7
20260902074104 58 318 0.0 3.0 0.00 0.00 0.00 50 1028.7
20260902072004 58 123 0.0 2.0 0.00 0.00 0.00 51 1028.7
20260902071002 58 179 0.0 10.0 0.00 0.00 0.00 49 1028.7
20260902070005 57 360 0.0 2.0 0.00 0.00 0.00 49 1028.7
20260902065004 57 192 0.0 6.0 0.00 0.00 0.00 49 1028.7
20260902064003 57 360 2.0 4.0 0.00 0.00 0.00 51 1028.7
20260902063003 57 360 0.0 10.0 0.00 0.00 0.00 50 1028.8
20260902062004 57 148 2.0 9.0 0.00 0.00 0.00 51 1028.8
20260902055902 58 193 1.0 9.0 0.00 0.00 0.00 48 1028.8
20260902054903 58 360 2.0 9.0 0.00 0.00 0.00 49 1028.9
20260902053903 58 123 0.0 9.0 0.00 0.00 0.00 48 1028.9
20260902052904 59 360 0.0 5.0 0.00 0.00 0.00 47 1028.9
20260902051902 59 360 0.0 2.0 0.00 0.00 0.00 46 1028.8
20260902050905 59 359 2.0 8.0 0.00 0.00 0.00 47 1028.5
20260902045903 59 360 1.0 10.0 0.00 0.00 0.00 46 1028.5
20260902044902 59 66 0.0 3.0 0.00 0.00 0.00 48 1028.7
20260902043903 59 223 0.0 3.0 0.00 0.00 0.00 47 1028.8
20260902042903 59 360 0.0 8.0 0.00 0.00 0.00 47 1028.9
20260902041902 60 52 0.0 2.0 0.00 0.00 0.00 48 1028.8
20260902040903 60 360 0.0 3.0 0.00 0.00 0.00 48 1028.9
20260902035903 60 360 0.0 0.0 0.00 0.00 0.00 48 1028.7
20260902034904 61 360 0.0 3.0 0.00 0.00 0.00 49 1028.7
20260902033902 61 140 2.0 4.0 0.00 0.00 0.00 51 1028.4
20260902031803 62 360 0.0 1.0 0.00 0.00 0.00 51 1028.0
20260902030803 63 8 2.0 3.0 0.00 0.00 0.00 50 1027.7
20260902025804 63 360 2.0 6.0 0.00 0.00 0.00 51 1027.6
20260902024803 64 356 0.0 2.0 0.00 0.00 0.00 52 1027.3
20260902023803 64 360 0.0 0.0 0.00 0.00 0.00 53 1027.2
20260902022804 65 198 1.0 0.0 0.00 0.00 0.00 51 1027.1
20260902015604 66 360 0.0 10.0 0.00 0.00 0.00 51 1026.4
20260902014603 66 360 4.0 10.0 0.00 0.00 0.00 51 1026.4